TimeEDT,TemperatureF,Dew PointF,Humidity,Sea Level PressureIn,VisibilityMPH,Wind Direction,Wind SpeedMPH,Gust SpeedMPH,PrecipitationIn,Events,Conditions,WindDirDegrees,DateUTC
12:53 AM,25.0,19.0,78,30.05,10.0,Calm,Calm,-,N/A,,Clear,0,2013-03-23 04:53:00
1:53 AM,23.0,18.0,81,30.05,10.0,Calm,Calm,-,N/A,,Clear,0,2013-03-23 05:53:00
2:53 AM,21.9,17.1,82,30.05,10.0,Calm,Calm,-,N/A,,Clear,0,2013-03-23 06:53:00
3:53 AM,23.0,18.0,81,30.04,10.0,Calm,Calm,-,N/A,,Clear,0,2013-03-23 07:53:00
4:53 AM,21.9,17.1,82,30.04,8.0,Calm,Calm,-,N/A,,Clear,0,2013-03-23 08:53:00
5:53 AM,23.0,19.0,85,30.04,9.0,Calm,Calm,-,N/A,,Mostly Cloudy,0,2013-03-23 09:53:00
6:53 AM,23.0,19.0,85,30.04,9.0,Calm,Calm,-,N/A,,Overcast,0,2013-03-23 10:53:00
7:53 AM,26.1,21.0,81,30.06,8.0,Calm,Calm,-,N/A,,Overcast,0,2013-03-23 11:53:00
8:53 AM,28.9,23.0,78,30.08,7.0,Calm,Calm,-,N/A,,Overcast,0,2013-03-23 12:53:00
9:53 AM,33.1,25.0,72,30.09,8.0,Calm,Calm,-,N/A,,Overcast,0,2013-03-23 13:53:00
10:53 AM,37.0,21.9,54,30.09,10.0,Calm,Calm,-,N/A,,Overcast,0,2013-03-23 14:53:00
11:53 AM,42.1,23.0,47,30.07,10.0,North,6.9,-,N/A,,Overcast,360,2013-03-23 15:53:00
12:53 PM,44.1,21.9,42,30.06,10.0,North,6.9,-,N/A,,Clear,360,2013-03-23 16:53:00
1:53 PM,45.0,19.9,37,30.05,10.0,NW,10.4,-,N/A,,Clear,320,2013-03-23 17:53:00
2:53 PM,46.0,19.0,34,30.04,10.0,NW,5.8,-,N/A,,Clear,320,2013-03-23 18:53:00
3:53 PM,48.9,21.0,33,30.04,10.0,Variable,6.9,-,N/A,,Clear,0,2013-03-23 19:53:00
4:53 PM,46.9,18.0,32,30.03,10.0,NW,8.1,-,N/A,,Clear,320,2013-03-23 20:53:00
5:53 PM,48.0,19.9,33,30.01,10.0,NE,4.6,-,N/A,,Clear,40,2013-03-23 21:53:00
6:53 PM,46.0,21.9,39,30.00,10.0,North,5.8,-,N/A,,Clear,360,2013-03-23 22:53:00
7:53 PM,39.0,26.1,60,30.02,10.0,NNE,5.8,-,N/A,,Clear,30,2013-03-23 23:53:00
8:53 PM,35.1,26.1,70,30.02,10.0,Calm,Calm,-,N/A,,Clear,0,2013-03-24 00:53:00
9:53 PM,32.0,26.1,79,30.02,10.0,Calm,Calm,-,N/A,,Clear,0,2013-03-24 01:53:00
10:53 PM,35.1,24.1,64,29.98,10.0,NE,8.1,-,N/A,,Clear,50,2013-03-24 02:53:00
11:53 PM,35.1,24.1,64,29.98,10.0,ENE,6.9,-,N/A,,Clear,60,2013-03-24 03:53:00